Time,TemperatureF,DewpointF,PressureIn,WindDirection,WindDirectionDegrees,WindSpeedMPH,WindSpeedGustMPH,Humidity,HourlyPrecipIn,Conditions,Clouds,dailyrainin,SoftwareType,DateUTC
2013-07-27 00:03:00,56.7,49.6,29.81,North,360,3.3,7.0,77,0.00,SCT,SKC,0.00,WeatherDisplay:10.37,2013-07-27 05:03:00,
2013-07-27 00:08:00,56.6,49.5,29.80,North,360,1.5,3.5,77,0.00,SCT,SKC,0.00,WeatherDisplay:10.37,2013-07-27 05:08:00,
2013-07-27 00:13:00,56.5,49.4,29.80,North,360,2.0,4.0,77,0.00,SCT,SKC,0.00,WeatherDisplay:10.37,2013-07-27 05:13:00,
2013-07-27 00:18:00,56.4,49.3,29.80,North,360,1.7,4.0,77,0.00,SCT,SKC,0.00,WeatherDisplay:10.37,2013-07-27 05:18:00,
2013-07-27 00:23:00,56.3,49.2,29.80,North,360,0.8,3.5,77,0.00,SCT,SKC,0.00,WeatherDisplay:10.37,2013-07-27 05:23:00,
2013-07-27 00:28:00,56.2,49.1,29.80,North,350,2.6,6.0,77,0.00,SCT,SKC,0.00,WeatherDisplay:10.37,2013-07-27 05:28:00,
2013-07-27 00:33:00,56.2,49.1,29.80,North,350,1.8,4.0,77,0.00,SCT,SKC,0.00,WeatherDisplay:10.37,2013-07-27 05:33:00,
2013-07-27 00:38:00,56.2,49.1,29.80,North,350,0.8,2.3,77,0.00,SCT,SKC,0.00,WeatherDisplay:10.37,2013-07-27 05:38:00,
2013-07-27 00:43:00,56.1,49.0,29.80,North,350,0.3,2.0,77,0.00,SCT,SKC,0.00,WeatherDisplay:10.37,2013-07-27 05:43:00,
2013-07-27 00:48:00,56.0,48.9,29.80,North,350,0.1,2.3,77,0.00,SCT,SKC,0.00,WeatherDisplay:10.37,2013-07-27 05:48:00,
2013-07-27 00:53:00,55.9,48.8,29.79,North,350,0.0,1.2,77,0.00,SCT,SKC,0.00,WeatherDisplay:10.37,2013-07-27 05:53:00,
2013-07-27 00:58:00,55.8,48.3,29.79,North,350,0.0,0.0,76,0.00,SCT,SKC,0.00,WeatherDisplay:10.37,2013-07-27 05:58:00,
2013-07-27 01:03:00,55.7,48.2,29.79,North,350,0.0,0.0,76,0.00,SCT,SKC,0.00,WeatherDisplay:10.37,2013-07-27 06:03:00,
2013-07-27 01:08:00,55.5,48.1,29.79,North,350,0.0,0.0,76,0.00,SCT,SKC,0.00,WeatherDisplay:10.37,2013-07-27 06:08:00,
2013-07-27 01:13:00,55.4,48.0,29.79,North,350,0.5,2.0,76,0.00,SCT,SKC,0.00,WeatherDisplay:10.37,2013-07-27 06:13:00,
2013-07-27 01:18:00,55.3,47.9,29.79,North,350,0.0,1.2,76,0.00,SCT,SKC,0.00,WeatherDisplay:10.37,2013-07-27 06:18:00,
2013-07-27 01:23:00,55.3,47.9,29.80,North,350,0.0,0.0,76,0.00,CLR,SKC,0.00,WeatherDisplay:10.37,2013-07-27 06:23:00,
2013-07-27 01:28:00,55.2,47.8,29.79,North,350,0.0,1.0,76,0.00,CLR,SKC,0.00,WeatherDisplay:10.37,2013-07-27 06:28:00,
2013-07-27 01:33:00,55.1,47.7,29.79,North,350,0.0,0.0,76,0.00,CLR,SKC,0.00,WeatherDisplay:10.37,2013-07-27 06:33:00,
2013-07-27 01:39:00,55.0,47.6,29.79,North,350,0.0,0.0,76,0.00,CLR,SKC,0.00,WeatherDisplay:10.37,2013-07-27 06:39:00,
2013-07-27 01:44:00,54.6,47.2,29.80,North,350,0.0,2.3,76,0.00,CLR,SKC,0.00,WeatherDisplay:10.37,2013-07-27 06:44:00,
2013-07-27 01:49:00,54.1,46.7,29.80,North,350,0.0,1.2,76,0.00,CLR,SKC,0.00,WeatherDisplay:10.37,2013-07-27 06:49:00,
2013-07-27 01:54:00,53.6,46.2,29.80,North,350,0.0,1.2,76,0.00,CLR,SKC,0.00,WeatherDisplay:10.37,2013-07-27 06:54:00,
2013-07-27 01:59:00,53.3,45.9,29.79,North,350,0.0,0.0,76,0.00,CLR,SKC,0.00,WeatherDisplay:10.37,2013-07-27 06:59:00,
2013-07-27 02:04:00,53.3,45.6,29.80,North,350,0.1,1.0,75,0.00,SCT,SKC,0.00,WeatherDisplay:10.37,2013-07-27 07:04:00,
2013-07-27 02:09:00,53.3,45.2,29.80,North,350,0.3,1.2,74,0.00,SCT,SKC,0.00,WeatherDisplay:10.37,2013-07-27 07:09:00,
2013-07-27 02:14:00,53.4,45.3,29.80,North,350,0.7,2.3,74,0.00,SCT,SKC,0.00,WeatherDisplay:10.37,2013-07-27 07:14:00,
2013-07-27 02:19:00,53.7,45.6,29.80,North,350,0.9,2.3,74,0.00,SCT,SKC,0.00,WeatherDisplay:10.37,2013-07-27 07:19:00,
2013-07-27 02:24:00,53.8,46.1,29.80,North,350,0.8,2.3,75,0.00,SCT,SKC,0.00,WeatherDisplay:10.37,2013-07-27 07:24:00,
2013-07-27 02:29:00,53.8,46.1,29.80,North,350,0.6,2.3,75,0.00,SCT,SKC,0.00,WeatherDisplay:10.37,2013-07-27 07:29:00,
2013-07-27 02:34:00,53.8,46.4,29.80,North,350,0.7,2.0,76,0.00,SCT,SKC,0.00,WeatherDisplay:10.37,2013-07-27 07:34:00,
2013-07-27 02:39:00,53.6,46.2,29.80,North,350,0.0,1.2,76,0.00,SCT,SKC,0.00,WeatherDisplay:10.37,2013-07-27 07:39:00,
2013-07-27 02:44:00,53.6,46.2,29.80,North,350,0.4,2.0,76,0.00,SCT,SKC,0.00,WeatherDisplay:10.37,2013-07-27 07:44:00,
2013-07-27 02:49:00,53.5,46.1,29.80,North,350,0.1,1.2,76,0.00,SCT,SKC,0.00,WeatherDisplay:10.37,2013-07-27 07:49:00,
2013-07-27 02:54:00,53.5,46.1,29.80,North,350,0.1,1.2,76,0.00,SCT,SKC,0.00,WeatherDisplay:10.37,2013-07-27 07:54:00,
2013-07-27 02:59:00,53.4,46.0,29.80,North,350,0.3,2.0,76,0.00,SCT,SKC,0.00,WeatherDisplay:10.37,2013-07-27 07:59:00,
2013-07-27 03:04:00,53.3,45.9,29.80,North,350,0.2,1.2,76,0.00,CLR,SKC,0.00,WeatherDisplay:10.37,2013-07-27 08:04:00,
2013-07-27 03:09:00,53.2,45.8,29.80,North,350,0.9,2.3,76,0.00,CLR,SKC,0.00,WeatherDisplay:10.37,2013-07-27 08:09:00,
2013-07-27 03:14:00,53.2,45.5,29.80,North,350,0.3,2.3,75,0.00,CLR,SKC,0.00,WeatherDisplay:10.37,2013-07-27 08:14:00,
2013-07-27 03:19:00,53.2,45.8,29.80,North,350,0.0,1.2,76,0.00,CLR,SKC,0.00,WeatherDisplay:10.37,2013-07-27 08:19:00,
2013-07-27 03:24:00,53.2,45.8,29.80,North,350,0.7,2.3,76,0.00,BKN,SKC,0.00,WeatherDisplay:10.37,2013-07-27 08:24:00,
2013-07-27 03:29:00,53.0,45.6,29.80,North,350,0.2,2.3,76,0.00,BKN,SKC,0.00,WeatherDisplay:10.37,2013-07-27 08:29:00,
2013-07-27 03:34:00,52.9,45.5,29.79,North,350,0.3,4.6,76,0.00,BKN,SKC,0.00,WeatherDisplay:10.37,2013-07-27 08:34:00,
2013-07-27 03:39:00,52.8,45.4,29.79,North,350,0.0,2.3,76,0.00,BKN,SKC,0.00,WeatherDisplay:10.37,2013-07-27 08:39:00,
2013-07-27 03:44:00,52.7,45.3,29.79,North,350,0.4,3.5,76,0.00,BKN,SKC,0.00,WeatherDisplay:10.37,2013-07-27 08:44:00,
2013-07-27 03:49:00,52.6,45.2,29.79,North,350,0.4,2.3,76,0.00,BKN,SKC,0.00,WeatherDisplay:10.37,2013-07-27 08:49:00,
2013-07-27 03:54:00,52.5,45.5,29.79,North,350,2.5,5.0,77,0.00,BKN,SKC,0.00,WeatherDisplay:10.37,2013-07-27 08:54:00,
2013-07-27 03:59:00,52.5,45.5,29.79,North,350,2.2,3.5,77,0.00,BKN,SKC,0.00,WeatherDisplay:10.37,2013-07-27 08:59:00,
2013-07-27 04:04:00,52.3,45.6,29.80,North,350,1.3,3.5,78,0.00,SCT,SKC,0.00,WeatherDisplay:10.37,2013-07-27 09:04:00,
2013-07-27 04:09:00,52.2,45.2,29.80,North,350,1.9,3.5,77,0.00,SCT,SKC,0.00,WeatherDisplay:10.37,2013-07-27 09:09:00,
2013-07-27 04:14:00,52.2,45.2,29.80,North,350,1.8,3.5,77,0.00,SCT,SKC,0.00,WeatherDisplay:10.37,2013-07-27 09:14:00,
2013-07-27 04:19:00,52.2,45.2,29.80,North,350,3.1,6.0,77,0.00,SCT,SKC,0.00,WeatherDisplay:10.37,2013-07-27 09:19:00,
2013-07-27 04:24:00,52.2,45.2,29.80,North,350,2.6,5.0,77,0.00,BKN,SKC,0.00,WeatherDisplay:10.37,2013-07-27 09:24:00,
2013-07-27 04:29:00,52.1,45.4,29.80,North,350,2.9,5.0,78,0.00,BKN,SKC,0.00,WeatherDisplay:10.37,2013-07-27 09:29:00,
2013-07-27 04:34:00,52.0,45.4,29.80,North,350,3.6,6.9,78,0.00,BKN,SKC,0.00,WeatherDisplay:10.37,2013-07-27 09:34:00,
2013-07-27 04:40:00,51.8,45.2,29.80,North,350,1.7,3.0,78,0.00,BKN,SKC,0.00,WeatherDisplay:10.37,2013-07-27 09:40:00,
2013-07-27 04:45:00,51.7,45.1,29.80,North,350,0.9,3.5,78,0.00,BKN,SKC,0.00,WeatherDisplay:10.37,2013-07-27 09:45:00,
2013-07-27 04:50:00,51.5,44.9,29.80,North,350,0.6,2.3,78,0.00,BKN,SKC,0.00,WeatherDisplay:10.37,2013-07-27 09:50:00,
2013-07-27 04:55:00,51.3,44.7,29.80,North,350,0.4,2.3,78,0.00,BKN,SKC,0.00,WeatherDisplay:10.37,2013-07-27 09:55:00,
2013-07-27 05:00:00,51.0,44.4,29.81,North,350,0.3,2.0,78,0.00,BKN,SKC,0.00,WeatherDisplay:10.37,2013-07-27 10:00:00,
2013-07-27 05:05:00,50.8,44.2,29.81,North,350,0.9,4.6,78,0.00,BKN,SKC,0.00,WeatherDisplay:10.37,2013-07-27 10:05:00,
2013-07-27 05:10:00,50.8,44.2,29.81,North,350,0.5,2.0,78,0.00,BKN,SKC,0.00,WeatherDisplay:10.37,2013-07-27 10:10:00,
2013-07-27 05:15:00,50.7,44.1,29.81,North,350,0.0,0.0,78,0.00,BKN,SKC,0.00,WeatherDisplay:10.37,2013-07-27 10:15:00,
2013-07-27 05:20:00,50.7,44.1,29.81,North,350,0.0,0.0,78,0.00,BKN,SKC,0.00,WeatherDisplay:10.37,2013-07-27 10:20:00,
2013-07-27 05:25:00,50.6,43.7,29.81,North,350,0.0,0.0,77,0.00,SCT,SKC,0.00,WeatherDisplay:10.37,2013-07-27 10:25:00,
2013-07-27 05:30:00,50.6,43.7,29.81,North,350,0.0,0.0,77,0.00,SCT,SKC,0.00,WeatherDisplay:10.37,2013-07-27 10:30:00,
2013-07-27 05:35:00,50.4,43.5,29.81,North,350,0.0,0.0,77,0.00,SCT,SKC,0.00,WeatherDisplay:10.37,2013-07-27 10:35:00,
2013-07-27 05:40:00,50.3,43.0,29.81,North,350,0.0,0.0,76,0.00,SCT,SKC,0.00,WeatherDisplay:10.37,2013-07-27 10:40:00,
2013-07-27 05:45:00,50.1,42.8,29.81,North,350,0.0,0.0,76,0.00,SCT,SKC,0.00,WeatherDisplay:10.37,2013-07-27 10:45:00,
2013-07-27 05:50:00,49.9,42.6,29.81,North,350,0.0,0.0,76,0.00,SCT,SKC,0.00,WeatherDisplay:10.37,2013-07-27 10:50:00,
2013-07-27 05:55:00,50.0,42.4,29.81,North,350,0.2,1.2,75,0.00,SCT,SKC,0.00,WeatherDisplay:10.37,2013-07-27 10:55:00,
2013-07-27 06:00:00,50.0,42.4,29.81,North,350,0.0,0.0,75,0.00,SCT,SKC,0.00,WeatherDisplay:10.37,2013-07-27 11:00:00,
2013-07-27 06:05:00,50.0,42.4,29.82,North,350,0.0,0.0,75,0.00,SCT,SKC,0.00,WeatherDisplay:10.37,2013-07-27 11:05:00,
2013-07-27 06:10:00,50.0,42.0,29.82,North,350,0.0,2.3,74,0.00,SCT,SKC,0.00,WeatherDisplay:10.37,2013-07-27 11:10:00,
2013-07-27 06:15:00,50.3,42.0,29.82,North,350,0.0,2.3,73,0.00,SCT,SKC,0.00,WeatherDisplay:10.37,2013-07-27 11:15:00,
2013-07-27 06:20:00,50.6,42.3,29.82,North,350,0.1,1.2,73,0.00,SCT,SKC,0.00,WeatherDisplay:10.37,2013-07-27 11:20:00,
2013-07-27 06:25:00,50.8,42.5,29.81,North,350,0.0,1.2,73,0.00,BKN,SKC,0.00,WeatherDisplay:10.37,2013-07-27 11:25:00,
2013-07-27 06:30:00,51.0,42.6,29.81,North,350,0.0,1.2,73,0.00,BKN,SKC,0.00,WeatherDisplay:10.37,2013-07-27 11:30:00,
2013-07-27 06:36:00,51.1,42.8,29.81,North,350,0.0,2.0,73,0.00,BKN,SKC,0.00,WeatherDisplay:10.37,2013-07-27 11:36:00,
2013-07-27 06:41:00,51.2,43.2,29.81,North,350,0.9,2.3,74,0.00,SCT,SKC,0.00,WeatherDisplay:10.37,2013-07-27 11:41:00,
2013-07-27 06:46:00,51.3,43.3,29.81,North,350,0.2,2.3,74,0.00,SCT,SKC,0.00,WeatherDisplay:10.37,2013-07-27 11:46:00,
2013-07-27 06:51:00,51.3,43.6,29.81,North,350,0.0,2.0,75,0.00,SCT,SKC,0.00,WeatherDisplay:10.37,2013-07-27 11:51:00,
2013-07-27 06:57:00,51.2,43.5,29.81,North,350,0.2,1.2,75,0.00,SCT,SKC,0.00,WeatherDisplay:10.37,2013-07-27 11:57:00,
2013-07-27 07:02:00,51.2,43.5,29.81,North,350,1.2,3.5,75,0.00,CLR,SKC,0.00,WeatherDisplay:10.37,2013-07-27 12:02:00,
2013-07-27 07:07:00,51.2,43.5,29.81,North,350,1.1,3.5,75,0.00,CLR,SKC,0.00,WeatherDisplay:10.37,2013-07-27 12:07:00,
2013-07-27 07:12:00,51.2,43.5,29.80,North,350,1.2,2.3,75,0.00,CLR,SKC,0.00,WeatherDisplay:10.37,2013-07-27 12:12:00,
2013-07-27 07:17:00,51.3,43.6,29.80,North,350,0.4,2.3,75,0.00,CLR,SKC,0.00,WeatherDisplay:10.37,2013-07-27 12:17:00,
2013-07-27 07:22:00,51.4,44.1,29.80,North,350,0.5,2.3,76,0.00,CLR,SKC,0.00,WeatherDisplay:10.37,2013-07-27 12:22:00,
2013-07-27 07:27:00,51.7,44.4,29.80,North,350,0.1,1.2,76,0.00,CLR,SKC,0.00,WeatherDisplay:10.37,2013-07-27 12:27:00,
2013-07-27 07:32:00,52.1,44.8,29.80,North,350,0.9,3.5,76,0.00,CLR,SKC,0.00,WeatherDisplay:10.37,2013-07-27 12:32:00,
2013-07-27 07:37:00,52.4,45.4,29.81,North,350,0.8,3.5,77,0.00,CLR,SKC,0.00,WeatherDisplay:10.37,2013-07-27 12:37:00,
2013-07-27 07:42:00,52.7,45.7,29.81,NNW,342,1.8,3.5,77,0.00,CLR,SKC,0.00,WeatherDisplay:10.37,2013-07-27 12:42:00,
2013-07-27 07:47:00,52.8,45.8,29.81,NNW,342,1.2,3.5,77,0.00,CLR,SKC,0.00,WeatherDisplay:10.37,2013-07-27 12:47:00,
2013-07-27 07:52:00,53.0,46.0,29.81,NNW,342,1.5,4.0,77,0.00,CLR,SKC,0.00,WeatherDisplay:10.37,2013-07-27 12:52:00,
2013-07-27 07:57:00,53.3,46.3,29.80,NNW,342,1.0,3.5,77,0.00,CLR,SKC,0.00,WeatherDisplay:10.37,2013-07-27 12:57:00,
2013-07-27 08:02:00,53.5,46.5,29.80,NNW,342,0.4,3.5,77,0.00,CLR,SKC,0.00,WeatherDisplay:10.37,2013-07-27 13:02:00,
2013-07-27 08:07:00,53.6,46.9,29.81,NNW,342,0.9,3.5,78,0.00,CLR,SKC,0.00,WeatherDisplay:10.37,2013-07-27 13:07:00,
2013-07-27 08:12:00,53.9,46.9,29.81,NNW,342,0.6,3.5,77,0.00,CLR,SKC,0.00,WeatherDisplay:10.37,2013-07-27 13:12:00,
2013-07-27 08:17:00,54.2,47.5,29.81,NNW,342,0.9,3.5,78,0.00,CLR,SKC,0.00,WeatherDisplay:10.37,2013-07-27 13:17:00,
2013-07-27 08:22:00,54.6,47.9,29.81,NNW,342,2.7,4.0,78,0.00,CLR,SKC,0.00,WeatherDisplay:10.37,2013-07-27 13:22:00,
2013-07-27 08:27:00,55.1,48.4,29.81,NNW,342,1.8,3.5,78,0.00,CLR,SKC,0.00,WeatherDisplay:10.37,2013-07-27 13:27:00,
2013-07-27 08:32:00,55.4,49.0,29.81,NNW,342,1.9,3.5,79,0.00,CLR,SKC,0.00,WeatherDisplay:10.37,2013-07-27 13:32:00,
2013-07-27 08:37:00,55.7,48.9,29.81,NNW,340,1.4,4.0,78,0.00,CLR,SKC,0.00,WeatherDisplay:10.37,2013-07-27 13:37:00,
2013-07-27 08:42:00,55.5,48.8,29.81,NNW,340,3.0,5.0,78,0.00,SCT,SKC,0.00,WeatherDisplay:10.37,2013-07-27 13:42:00,
2013-07-27 08:47:00,55.4,48.7,29.81,NNW,341,0.6,2.3,78,0.00,SCT,SKC,0.00,WeatherDisplay:10.37,2013-07-27 13:47:00,
2013-07-27 08:52:00,55.4,48.7,29.81,NNW,341,1.5,3.5,78,0.00,SCT,SKC,0.00,WeatherDisplay:10.37,2013-07-27 13:52:00,
2013-07-27 08:57:00,55.5,48.8,29.81,NNW,341,1.6,3.5,78,0.00,SCT,SKC,0.00,WeatherDisplay:10.37,2013-07-27 13:57:00,
2013-07-27 09:02:00,55.7,48.9,29.81,NNW,341,1.5,3.5,78,0.00,BKN,SKC,0.00,WeatherDisplay:10.37,2013-07-27 14:02:00,
2013-07-27 09:07:00,55.6,48.8,29.81,NW,321,2.1,4.0,78,0.00,BKN,SKC,0.00,WeatherDisplay:10.37,2013-07-27 14:07:00,
2013-07-27 09:12:00,55.4,48.7,29.81,NNW,338,3.2,8.1,78,0.00,BKN,SKC,0.00,WeatherDisplay:10.37,2013-07-27 14:12:00,
2013-07-27 09:17:00,55.6,48.8,29.81,NNW,340,1.2,3.5,78,0.00,BKN,SKC,0.00,WeatherDisplay:10.37,2013-07-27 14:17:00,
2013-07-27 09:22:00,56.0,49.2,29.81,NNW,340,1.6,4.0,78,0.00,OVC,SKC,0.00,WeatherDisplay:10.37,2013-07-27 14:22:00,
2013-07-27 09:27:00,56.3,49.2,29.80,NNW,342,2.7,4.6,77,0.00,OVC,SKC,0.00,WeatherDisplay:10.37,2013-07-27 14:27:00,
2013-07-27 09:32:00,56.8,49.3,29.80,NNW,342,1.2,3.5,76,0.00,OVC,SKC,0.00,WeatherDisplay:10.37,2013-07-27 14:32:00,
2013-07-27 09:37:00,57.5,50.7,29.80,NNW,333,1.9,4.0,78,0.00,OVC,SKC,0.00,WeatherDisplay:10.37,2013-07-27 14:37:00,
2013-07-27 09:42:00,58.1,50.9,29.80,NNW,333,1.5,4.0,77,0.00,OVC,SKC,0.00,WeatherDisplay:10.37,2013-07-27 14:42:00,
2013-07-27 09:47:00,58.3,50.4,29.80,NNW,333,1.9,5.0,75,0.00,OVC,SKC,0.00,WeatherDisplay:10.37,2013-07-27 14:47:00,
2013-07-27 09:52:00,58.6,50.3,29.80,NNW,333,0.7,3.5,74,0.00,OVC,SKC,0.00,WeatherDisplay:10.37,2013-07-27 14:52:00,
2013-07-27 09:58:00,58.8,50.5,29.80,NNW,333,2.0,4.6,74,0.00,OVC,SKC,0.00,WeatherDisplay:10.37,2013-07-27 14:58:00,
2013-07-27 10:03:00,58.8,50.2,29.80,NNW,333,2.3,4.6,73,0.00,BKN,SKC,0.00,WeatherDisplay:10.37,2013-07-27 15:03:00,
2013-07-27 10:08:00,58.6,50.0,29.79,NNW,327,1.8,3.5,73,0.00,BKN,SKC,0.00,WeatherDisplay:10.37,2013-07-27 15:08:00,
2013-07-27 10:13:00,59.1,50.5,29.80,NNW,327,2.5,4.0,73,0.00,BKN,SKC,0.00,WeatherDisplay:10.37,2013-07-27 15:13:00,
2013-07-27 10:18:00,58.8,49.8,29.80,NW,318,2.7,6.0,72,0.00,BKN,SKC,0.00,WeatherDisplay:10.37,2013-07-27 15:18:00,
2013-07-27 10:23:00,58.3,49.7,29.80,NW,318,2.1,5.0,73,0.00,SCT,SKC,0.00,WeatherDisplay:10.37,2013-07-27 15:23:00,
2013-07-27 10:28:00,58.5,49.9,29.80,NW,318,1.6,4.0,73,0.00,SCT,SKC,0.00,WeatherDisplay:10.37,2013-07-27 15:28:00,
2013-07-27 10:33:00,59.1,51.2,29.79,NW,318,1.8,4.0,75,0.00,SCT,SKC,0.00,WeatherDisplay:10.37,2013-07-27 15:33:00,
2013-07-27 10:38:00,59.7,49.5,29.79,NW,318,2.6,5.0,69,0.00,SCT,SKC,0.00,WeatherDisplay:10.37,2013-07-27 15:38:00,
2013-07-27 10:43:00,60.2,50.0,29.78,West,273,2.1,9.2,69,0.00,SCT,SKC,0.00,WeatherDisplay:10.37,2013-07-27 15:43:00,
2013-07-27 10:48:00,61.1,50.1,29.78,NNW,348,2.0,4.6,67,0.00,SCT,SKC,0.00,WeatherDisplay:10.37,2013-07-27 15:48:00,
2013-07-27 10:53:00,61.5,50.4,29.78,NNW,348,3.0,8.1,67,0.00,SCT,SKC,0.00,WeatherDisplay:10.37,2013-07-27 15:53:00,
2013-07-27 10:58:00,61.8,51.5,29.78,NNW,344,1.1,4.0,69,0.00,SCT,SKC,0.00,WeatherDisplay:10.37,2013-07-27 15:58:00,
2013-07-27 11:03:00,62.1,51.4,29.78,NNW,343,1.6,4.0,68,0.00,SCT,SKC,0.00,WeatherDisplay:10.37,2013-07-27 16:03:00,
2013-07-27 11:08:00,62.3,50.8,29.78,NNW,335,1.2,4.0,66,0.00,SCT,SKC,0.00,WeatherDisplay:10.37,2013-07-27 16:08:00,
2013-07-27 11:13:00,61.9,50.4,29.78,NNW,329,0.9,4.6,66,0.00,SCT,SKC,0.00,WeatherDisplay:10.37,2013-07-27 16:13:00,
2013-07-27 11:19:00,61.7,50.2,29.78,NNW,333,2.2,4.0,66,0.00,SCT,SKC,0.00,WeatherDisplay:10.37,2013-07-27 16:19:00,
2013-07-27 11:24:00,61.8,50.3,29.78,NNW,346,1.7,3.5,66,0.00,BKN,SKC,0.00,WeatherDisplay:10.37,2013-07-27 16:24:00,
2013-07-27 11:29:00,62.0,50.9,29.78,NNW,341,2.1,8.1,67,0.00,BKN,SKC,0.00,WeatherDisplay:10.37,2013-07-27 16:29:00,
2013-07-27 11:34:00,62.1,50.2,29.78,NNW,332,1.8,3.5,65,0.00,BKN,SKC,0.00,WeatherDisplay:10.37,2013-07-27 16:34:00,
2013-07-27 11:39:00,61.9,50.0,29.77,NNW,332,2.2,5.0,65,0.00,BKN,SKC,0.00,WeatherDisplay:10.37,2013-07-27 16:39:00,
2013-07-27 11:44:00,61.4,49.9,29.77,NNW,327,2.2,4.0,66,0.00,BKN,SKC,0.00,WeatherDisplay:10.37,2013-07-27 16:44:00,
2013-07-27 11:49:00,61.5,51.2,29.77,NNW,327,2.6,5.0,69,0.00,BKN,SKC,0.00,WeatherDisplay:10.37,2013-07-27 16:49:00,
2013-07-27 11:54:00,61.6,50.1,29.77,NNW,331,2.1,4.6,66,0.00,BKN,SKC,0.00,WeatherDisplay:10.37,2013-07-27 16:54:00,
2013-07-27 11:59:00,61.3,50.2,29.77,NNW,331,1.0,3.5,67,0.00,BKN,SKC,0.00,WeatherDisplay:10.37,2013-07-27 16:59:00,
2013-07-27 12:04:00,61.3,50.2,29.77,NNW,338,2.4,4.0,67,0.00,BKN,SKC,0.00,WeatherDisplay:10.37,2013-07-27 17:04:00,
2013-07-27 12:09:00,61.9,50.4,29.77,North,355,2.1,6.0,66,0.00,BKN,SKC,0.00,WeatherDisplay:10.37,2013-07-27 17:09:00,
2013-07-27 12:14:00,62.9,50.1,29.77,NNW,347,1.3,3.5,63,0.00,BKN,SKC,0.00,WeatherDisplay:10.37,2013-07-27 17:14:00,
2013-07-27 12:19:00,62.8,50.0,29.77,NNW,347,2.5,4.6,63,0.00,BKN,SKC,0.00,WeatherDisplay:10.37,2013-07-27 17:19:00,
2013-07-27 12:24:00,62.3,50.4,29.77,NNW,345,2.1,5.8,65,0.00,BKN,SKC,0.00,WeatherDisplay:10.37,2013-07-27 17:24:00,
2013-07-27 12:29:00,63.1,51.6,29.76,NNW,338,2.0,4.0,66,0.00,BKN,SKC,0.00,WeatherDisplay:10.37,2013-07-27 17:29:00,
2013-07-27 12:34:00,63.7,50.9,29.76,North,349,2.6,4.0,63,0.00,BKN,SKC,0.00,WeatherDisplay:10.37,2013-07-27 17:34:00,
2013-07-27 12:40:00,64.1,51.2,29.76,NNW,348,1.4,3.5,63,0.00,BKN,SKC,0.00,WeatherDisplay:10.37,2013-07-27 17:40:00,
2013-07-27 12:45:00,64.1,52.1,29.76,NNW,346,2.9,5.0,65,0.00,BKN,SKC,0.00,WeatherDisplay:10.37,2013-07-27 17:45:00,
2013-07-27 12:50:00,63.9,50.2,29.76,NNW,344,1.3,3.5,61,0.00,BKN,SKC,0.00,WeatherDisplay:10.37,2013-07-27 17:50:00,
2013-07-27 12:55:00,64.3,51.4,29.76,NNW,342,3.0,5.0,63,0.00,BKN,SKC,0.00,WeatherDisplay:10.37,2013-07-27 17:55:00,
2013-07-27 13:00:00,65.2,52.3,29.76,WNW,296,2.8,4.6,63,0.00,BKN,SKC,0.00,WeatherDisplay:10.37,2013-07-27 18:00:00,
2013-07-27 13:05:00,64.3,49.7,29.76,WNW,296,2.2,4.0,59,0.00,OVC,SKC,0.00,WeatherDisplay:10.37,2013-07-27 18:05:00,
2013-07-27 13:10:00,64.0,50.7,29.75,WNW,296,1.5,4.6,62,0.00,OVC,SKC,0.00,WeatherDisplay:10.37,2013-07-27 18:10:00,
2013-07-27 13:15:00,64.0,50.3,29.75,WNW,296,2.4,4.6,61,0.00,OVC,SKC,0.00,WeatherDisplay:10.37,2013-07-27 18:15:00,
2013-07-27 13:20:00,64.5,51.6,29.75,WNW,296,3.3,5.0,63,0.00,OVC,SKC,0.00,WeatherDisplay:10.37,2013-07-27 18:20:00,
2013-07-27 13:25:00,64.6,50.8,29.75,WNW,296,3.2,5.0,61,0.00,OVC,SKC,0.00,WeatherDisplay:10.37,2013-07-27 18:25:00,
2013-07-27 13:30:00,64.3,51.0,29.75,WNW,296,4.1,6.0,62,0.00,OVC,SKC,0.00,WeatherDisplay:10.37,2013-07-27 18:30:00,
2013-07-27 13:35:00,63.5,49.4,29.75,WNW,296,3.2,5.0,60,0.00,OVC,SKC,0.00,WeatherDisplay:10.37,2013-07-27 18:35:00,
2013-07-27 13:40:00,62.8,50.4,29.75,WNW,296,2.3,4.0,64,0.00,OVC,SKC,0.00,WeatherDisplay:10.37,2013-07-27 18:40:00,
2013-07-27 13:45:00,62.2,48.6,29.75,WNW,296,3.4,5.0,61,0.00,BKN,SKC,0.00,WeatherDisplay:10.37,2013-07-27 18:45:00,
2013-07-27 13:50:00,61.8,48.6,29.75,WNW,296,2.7,4.0,62,0.00,BKN,SKC,0.00,WeatherDisplay:10.37,2013-07-27 18:50:00,
2013-07-27 13:55:00,61.8,49.1,29.75,WNW,296,1.9,3.5,63,0.00,BKN,SKC,0.00,WeatherDisplay:10.37,2013-07-27 18:55:00,
2013-07-27 14:00:00,61.8,49.1,29.75,WNW,296,2.1,5.0,63,0.00,BKN,SKC,0.00,WeatherDisplay:10.37,2013-07-27 19:00:00,
2013-07-27 14:05:00,61.4,48.7,29.75,WNW,296,1.1,3.5,63,0.00,BKN,SKC,0.00,WeatherDisplay:10.37,2013-07-27 19:05:00,
2013-07-27 14:10:00,61.3,49.0,29.75,North,360,2.7,5.8,64,0.00,BKN,SKC,0.00,WeatherDisplay:10.37,2013-07-27 19:10:00,
2013-07-27 14:15:00,61.2,48.9,29.75,NNW,327,4.1,7.0,64,0.00,BKN,SKC,0.00,WeatherDisplay:10.37,2013-07-27 19:15:00,
2013-07-27 14:20:00,61.1,48.8,29.75,North,360,2.0,3.5,64,0.00,BKN,SKC,0.00,WeatherDisplay:10.37,2013-07-27 19:20:00,
2013-07-27 14:25:00,61.0,48.7,29.75,NNW,338,2.5,6.0,64,0.00,OVC,SKC,0.00,WeatherDisplay:10.37,2013-07-27 19:25:00,
2013-07-27 14:30:00,61.0,49.6,29.75,NNW,339,2.3,4.0,66,0.00,OVC,SKC,0.00,WeatherDisplay:10.37,2013-07-27 19:30:00,
2013-07-27 14:35:00,61.1,48.8,29.75,NNW,343,3.3,7.0,64,0.00,OVC,SKC,0.00,WeatherDisplay:10.37,2013-07-27 19:35:00,
2013-07-27 14:40:00,61.1,49.2,29.75,NNW,332,3.9,7.0,65,0.00,OVC,SKC,0.00,WeatherDisplay:10.37,2013-07-27 19:40:00,
2013-07-27 14:45:00,60.9,49.5,29.75,North,350,2.7,6.9,66,0.00,OVC,SKC,0.00,WeatherDisplay:10.37,2013-07-27 19:45:00,
2013-07-27 14:50:00,60.7,50.1,29.76,NNW,348,4.8,9.2,68,0.00,OVC,SKC,0.00,WeatherDisplay:10.37,2013-07-27 19:50:00,
2013-07-27 14:55:00,60.1,49.9,29.76,NNW,348,4.4,7.0,69,0.00,OVC,SKC,0.00,WeatherDisplay:10.37,2013-07-27 19:55:00,
2013-07-27 15:00:00,59.7,49.9,29.76,NNW,346,1.5,6.9,70,0.00,OVC,SKC,0.00,WeatherDisplay:10.37,2013-07-27 20:00:00,
2013-07-27 15:05:00,59.3,49.5,29.76,North,351,4.6,8.1,70,0.00,OVC,SKC,0.00,WeatherDisplay:10.37,2013-07-27 20:05:00,
2013-07-27 15:10:00,59.1,49.3,29.76,North,355,4.2,6.0,70,0.00,OVC,SKC,0.00,WeatherDisplay:10.37,2013-07-27 20:10:00,
2013-07-27 15:15:00,59.3,49.1,29.75,NNW,346,2.2,8.1,69,0.00,OVC,SKC,0.00,WeatherDisplay:10.37,2013-07-27 20:15:00,
2013-07-27 15:20:00,59.5,49.7,29.75,North,355,3.9,10.4,70,0.00,OVC,SKC,0.00,WeatherDisplay:10.37,2013-07-27 20:20:00,
2013-07-27 15:25:00,59.8,50.0,29.76,North,350,5.4,8.1,70,0.00,OVC,SKC,0.00,WeatherDisplay:10.37,2013-07-27 20:25:00,
2013-07-27 15:30:00,60.8,51.7,29.75,North,5,6.8,12.0,72,0.00,OVC,SKC,0.00,WeatherDisplay:10.37,2013-07-27 20:30:00,
2013-07-27 15:36:00,60.7,50.9,29.75,North,352,3.0,12.0,70,0.00,OVC,SKC,0.00,WeatherDisplay:10.37,2013-07-27 20:36:00,
2013-07-27 15:41:00,60.5,50.7,29.75,North,355,2.2,4.6,70,0.00,OVC,SKC,0.00,WeatherDisplay:10.37,2013-07-27 20:41:00,
2013-07-27 15:47:00,60.4,50.6,29.75,North,355,0.7,4.6,70,0.00,OVC,SKC,0.00,WeatherDisplay:10.37,2013-07-27 20:47:00,
2013-07-27 15:52:00,60.5,49.9,29.75,North,355,3.6,8.1,68,0.00,OVC,SKC,0.00,WeatherDisplay:10.37,2013-07-27 20:52:00,
2013-07-27 15:57:00,60.3,49.3,29.75,North,355,2.7,4.6,67,0.00,OVC,SKC,0.00,WeatherDisplay:10.37,2013-07-27 20:57:00,
2013-07-27 16:02:00,59.9,49.3,29.75,North,355,3.2,6.0,68,0.00,OVC,SKC,0.00,WeatherDisplay:10.37,2013-07-27 21:02:00,
2013-07-27 16:07:00,59.5,48.9,29.75,North,5,2.1,4.0,68,0.00,OVC,SKC,0.00,WeatherDisplay:10.37,2013-07-27 21:07:00,
2013-07-27 16:12:00,59.2,49.0,29.74,North,5,0.7,5.8,69,0.00,OVC,SKC,0.00,WeatherDisplay:10.37,2013-07-27 21:12:00,
2013-07-27 16:17:00,59.1,48.5,29.74,North,5,1.7,3.5,68,0.00,OVC,SKC,0.00,WeatherDisplay:10.37,2013-07-27 21:17:00,
2013-07-27 16:22:00,59.4,49.2,29.74,North,5,0.9,3.5,69,0.00,OVC,SKC,0.00,WeatherDisplay:10.37,2013-07-27 21:22:00,
2013-07-27 16:27:00,60.1,49.5,29.74,North,355,1.9,5.8,68,0.00,OVC,SKC,0.00,WeatherDisplay:10.37,2013-07-27 21:27:00,
2013-07-27 16:32:00,60.9,49.9,29.74,North,355,3.0,4.6,67,0.00,OVC,SKC,0.00,WeatherDisplay:10.37,2013-07-27 21:32:00,
2013-07-27 16:37:00,61.4,49.9,29.74,North,355,0.3,2.3,66,0.00,OVC,SKC,0.00,WeatherDisplay:10.37,2013-07-27 21:37:00,
2013-07-27 16:42:00,61.7,49.4,29.73,North,355,0.7,3.5,64,0.00,OVC,SKC,0.00,WeatherDisplay:10.37,2013-07-27 21:42:00,
2013-07-27 16:47:00,61.8,49.5,29.74,North,355,0.0,1.2,64,0.00,OVC,SKC,0.00,WeatherDisplay:10.37,2013-07-27 21:47:00,
2013-07-27 16:52:00,61.6,50.1,29.74,North,355,1.3,3.5,66,0.00,OVC,SKC,0.00,WeatherDisplay:10.37,2013-07-27 21:52:00,
2013-07-27 16:57:00,61.4,49.9,29.74,North,355,0.9,3.5,66,0.00,OVC,SKC,0.00,WeatherDisplay:10.37,2013-07-27 21:57:00,
2013-07-27 17:02:00,61.1,49.7,29.74,North,355,0.2,2.3,66,0.00,OVC,SKC,0.00,WeatherDisplay:10.37,2013-07-27 22:02:00,
2013-07-27 17:07:00,60.9,49.9,29.73,North,355,0.0,1.2,67,0.00,OVC,SKC,0.00,WeatherDisplay:10.37,2013-07-27 22:07:00,
2013-07-27 17:12:00,60.8,49.8,29.74,North,355,0.5,2.0,67,0.00,OVC,SKC,0.00,WeatherDisplay:10.37,2013-07-27 22:12:00,
2013-07-27 17:17:00,60.7,49.7,29.74,North,355,0.0,0.0,67,0.00,OVC,SKC,0.00,WeatherDisplay:10.37,2013-07-27 22:17:00,
2013-07-27 17:22:00,60.6,49.6,29.73,North,355,0.0,0.0,67,0.00,OVC,SKC,0.00,WeatherDisplay:10.37,2013-07-27 22:22:00,
2013-07-27 17:27:00,60.6,50.0,29.73,North,355,0.0,1.2,68,0.00,OVC,SKC,0.00,WeatherDisplay:10.37,2013-07-27 22:27:00,
2013-07-27 17:32:00,60.7,50.9,29.73,North,355,0.4,2.3,70,0.00,OVC,SKC,0.00,WeatherDisplay:10.37,2013-07-27 22:32:00,
2013-07-27 17:37:00,60.6,50.8,29.73,North,355,0.1,2.3,70,0.00,OVC,SKC,0.00,WeatherDisplay:10.37,2013-07-27 22:37:00,
2013-07-27 17:42:00,60.5,51.0,29.73,North,355,0.5,2.3,71,0.00,OVC,SKC,0.00,WeatherDisplay:10.37,2013-07-27 22:42:00,
2013-07-27 17:47:00,60.4,51.0,29.73,North,355,0.0,1.2,71,0.00,OVC,SKC,0.00,WeatherDisplay:10.37,2013-07-27 22:47:00,
2013-07-27 17:52:00,60.2,50.8,29.73,North,355,0.0,0.0,71,0.00,OVC,SKC,0.00,WeatherDisplay:10.37,2013-07-27 22:52:00,
2013-07-27 17:57:00,60.2,51.1,29.73,North,355,0.0,0.0,72,0.00,OVC,SKC,0.00,WeatherDisplay:10.37,2013-07-27 22:57:00,
2013-07-27 18:02:00,60.1,51.0,29.73,North,355,0.0,0.0,72,0.00,OVC,SKC,0.00,WeatherDisplay:10.37,2013-07-27 23:02:00,
2013-07-27 18:07:00,60.1,51.4,29.72,North,355,0.0,0.0,73,0.00,OVC,SKC,0.00,WeatherDisplay:10.37,2013-07-27 23:07:00,
2013-07-27 18:12:00,60.1,51.0,29.72,North,355,0.0,0.0,72,0.00,OVC,SKC,0.00,WeatherDisplay:10.37,2013-07-27 23:12:00,
2013-07-27 18:17:00,60.2,51.1,29.72,North,355,0.0,0.0,72,0.00,OVC,SKC,0.00,WeatherDisplay:10.37,2013-07-27 23:17:00,
2013-07-27 18:23:00,60.4,51.7,29.72,North,355,0.0,0.0,73,0.00,OVC,SKC,0.00,WeatherDisplay:10.37,2013-07-27 23:23:00,
2013-07-27 18:28:00,60.5,51.4,29.72,North,355,0.0,0.0,72,0.00,OVC,SKC,0.00,WeatherDisplay:10.37,2013-07-27 23:28:00,
2013-07-27 18:33:00,60.7,52.0,29.72,North,355,0.0,0.0,73,0.00,OVC,SKC,0.00,WeatherDisplay:10.37,2013-07-27 23:33:00,
2013-07-27 18:38:00,60.8,52.1,29.72,North,355,0.0,0.0,73,0.00,OVC,SKC,0.00,WeatherDisplay:10.37,2013-07-27 23:38:00,
2013-07-27 18:43:00,60.9,52.6,29.72,North,355,0.0,0.0,74,0.00,OVC,SKC,0.00,WeatherDisplay:10.37,2013-07-27 23:43:00,
2013-07-27 18:48:00,60.9,52.2,29.72,North,355,0.0,0.0,73,0.00,OVC,SKC,0.00,WeatherDisplay:10.37,2013-07-27 23:48:00,
2013-07-27 18:53:00,60.8,52.5,29.71,North,355,0.0,0.0,74,0.00,OVC,SKC,0.00,WeatherDisplay:10.37,2013-07-27 23:53:00,
2013-07-27 18:58:00,60.7,52.4,29.71,North,355,0.0,0.0,74,0.00,OVC,SKC,0.00,WeatherDisplay:10.37,2013-07-27 23:58:00,
2013-07-27 19:03:00,60.5,51.8,29.71,North,355,0.0,1.2,73,0.00,OVC,SKC,0.00,WeatherDisplay:10.37,2013-07-28 00:03:00,
2013-07-27 19:08:00,60.3,51.6,29.71,North,355,0.0,0.0,73,0.00,OVC,SKC,0.00,WeatherDisplay:10.37,2013-07-28 00:08:00,
2013-07-27 19:13:00,60.3,52.0,29.71,North,355,0.0,0.0,74,0.00,OVC,SKC,0.00,WeatherDisplay:10.37,2013-07-28 00:13:00,
2013-07-27 19:18:00,60.3,52.3,29.71,North,355,0.0,0.0,75,0.00,OVC,SKC,0.00,WeatherDisplay:10.37,2013-07-28 00:18:00,
2013-07-27 19:23:00,60.2,51.9,29.71,North,355,0.0,0.0,74,0.00,OVC,SKC,0.00,WeatherDisplay:10.37,2013-07-28 00:23:00,
2013-07-27 19:28:00,60.2,52.2,29.71,North,355,0.0,0.0,75,0.00,OVC,SKC,0.00,WeatherDisplay:10.37,2013-07-28 00:28:00,
2013-07-27 19:33:00,60.0,52.1,29.71,North,355,0.0,1.2,75,0.00,OVC,SKC,0.00,WeatherDisplay:10.37,2013-07-28 00:33:00,
2013-07-27 19:38:00,59.8,51.9,29.70,North,355,0.0,0.0,75,0.00,OVC,SKC,0.00,WeatherDisplay:10.37,2013-07-28 00:38:00,
2013-07-27 19:43:00,59.7,51.8,29.70,North,355,0.0,0.0,75,0.00,OVC,SKC,0.00,WeatherDisplay:10.37,2013-07-28 00:43:00,
2013-07-27 19:48:00,59.6,52.0,29.70,North,355,0.0,0.0,76,0.00,OVC,SKC,0.00,WeatherDisplay:10.37,2013-07-28 00:48:00,
2013-07-27 19:53:00,59.4,51.8,29.70,North,355,0.0,0.0,76,0.00,OVC,SKC,0.00,WeatherDisplay:10.37,2013-07-28 00:53:00,
2013-07-27 19:58:00,59.2,51.6,29.70,North,355,0.0,0.0,76,0.00,OVC,SKC,0.00,WeatherDisplay:10.37,2013-07-28 00:58:00,
2013-07-27 20:03:00,59.0,51.4,29.70,North,355,0.0,0.0,76,0.00,OVC,SKC,0.00,WeatherDisplay:10.37,2013-07-28 01:03:00,
2013-07-27 20:08:00,58.9,51.7,29.70,North,355,0.0,0.0,77,0.00,OVC,SKC,0.00,WeatherDisplay:10.37,2013-07-28 01:08:00,
2013-07-27 20:13:00,58.8,51.6,29.70,North,355,0.0,0.0,77,0.00,OVC,SKC,0.00,WeatherDisplay:10.37,2013-07-28 01:13:00,
2013-07-27 20:18:00,58.8,51.6,29.70,North,355,0.0,0.0,77,0.00,OVC,SKC,0.00,WeatherDisplay:10.37,2013-07-28 01:18:00,
2013-07-27 20:23:00,58.8,51.6,29.70,North,355,0.1,1.2,77,0.00,OVC,SKC,0.00,WeatherDisplay:10.37,2013-07-28 01:23:00,
2013-07-27 20:28:00,58.7,51.5,29.70,North,355,0.0,0.0,77,0.00,OVC,SKC,0.00,WeatherDisplay:10.37,2013-07-28 01:28:00,
2013-07-27 20:34:00,58.6,51.4,29.70,North,355,0.0,1.2,77,0.00,OVC,SKC,0.00,WeatherDisplay:10.37,2013-07-28 01:34:00,
2013-07-27 20:39:00,58.5,51.3,29.70,North,355,0.7,3.5,77,0.00,OVC,SKC,0.00,WeatherDisplay:10.37,2013-07-28 01:39:00,
2013-07-27 20:44:00,58.5,51.3,29.70,North,355,0.0,0.0,77,0.00,OVC,SKC,0.00,WeatherDisplay:10.37,2013-07-28 01:44:00,
2013-07-27 20:49:00,58.5,51.3,29.70,North,355,0.0,0.0,77,0.00,OVC,SKC,0.00,WeatherDisplay:10.37,2013-07-28 01:49:00,
2013-07-27 20:54:00,58.5,51.3,29.70,North,355,0.0,0.0,77,0.00,OVC,SKC,0.00,WeatherDisplay:10.37,2013-07-28 01:54:00,
2013-07-27 20:59:00,58.5,51.3,29.70,North,355,0.0,0.0,77,0.00,OVC,SKC,0.00,WeatherDisplay:10.37,2013-07-28 01:59:00,
2013-07-27 21:04:00,58.4,51.2,29.70,North,355,0.0,1.2,77,0.00,OVC,SKC,0.00,WeatherDisplay:10.37,2013-07-28 02:04:00,
2013-07-27 21:09:00,58.5,51.3,29.70,North,355,0.0,0.0,77,0.00,OVC,SKC,0.00,WeatherDisplay:10.37,2013-07-28 02:09:00,
2013-07-27 21:14:00,58.5,51.3,29.70,North,355,0.0,0.0,77,0.00,OVC,SKC,0.00,WeatherDisplay:10.37,2013-07-28 02:14:00,
2013-07-27 21:19:00,58.6,51.1,29.70,North,355,0.2,1.2,76,0.00,OVC,SKC,0.00,WeatherDisplay:10.37,2013-07-28 02:19:00,
2013-07-27 21:24:00,58.6,51.1,29.70,North,355,0.0,0.0,76,0.00,OVC,SKC,0.00,WeatherDisplay:10.37,2013-07-28 02:24:00,
2013-07-27 21:29:00,58.7,50.8,29.70,North,355,0.4,2.3,75,0.00,OVC,SKC,0.00,WeatherDisplay:10.37,2013-07-28 02:29:00,
2013-07-27 21:34:00,58.9,51.0,29.71,North,355,0.6,2.3,75,0.00,OVC,SKC,0.00,WeatherDisplay:10.37,2013-07-28 02:34:00,
2013-07-27 21:39:00,59.2,51.3,29.71,North,355,1.3,3.5,75,0.00,OVC,SKC,0.00,WeatherDisplay:10.37,2013-07-28 02:39:00,
2013-07-27 21:44:00,59.3,51.4,29.72,North,355,0.8,2.3,75,0.00,OVC,SKC,0.00,WeatherDisplay:10.37,2013-07-28 02:44:00,
2013-07-27 21:49:00,59.3,51.4,29.72,North,355,4.5,6.0,75,0.00,OVC,SKC,0.00,WeatherDisplay:10.37,2013-07-28 02:49:00,
2013-07-27 21:54:00,59.2,51.6,29.72,North,360,3.0,7.0,76,0.00,OVC,SKC,0.00,WeatherDisplay:10.37,2013-07-28 02:54:00,
2013-07-27 21:59:00,59.0,51.4,29.72,North,360,1.1,3.5,76,0.00,OVC,SKC,0.00,WeatherDisplay:10.37,2013-07-28 02:59:00,
2013-07-27 22:04:00,58.6,50.7,29.72,North,360,0.3,2.3,75,0.00,OVC,SKC,0.00,WeatherDisplay:10.37,2013-07-28 03:04:00,
2013-07-27 22:09:00,58.4,50.5,29.72,North,360,0.1,1.2,75,0.00,OVC,SKC,0.00,WeatherDisplay:10.37,2013-07-28 03:09:00,
2013-07-27 22:14:00,58.2,50.3,29.72,North,360,0.9,3.5,75,0.00,OVC,SKC,0.00,WeatherDisplay:10.37,2013-07-28 03:14:00,
2013-07-27 22:19:00,58.2,50.3,29.72,North,360,0.2,2.3,75,0.00,OVC,SKC,0.00,WeatherDisplay:10.37,2013-07-28 03:19:00,
2013-07-27 22:25:00,58.1,50.2,29.72,North,360,2.0,4.6,75,0.00,OVC,SKC,0.00,WeatherDisplay:10.37,2013-07-28 03:25:00,
2013-07-27 22:30:00,58.0,50.1,29.72,North,360,0.3,4.0,75,0.00,OVC,SKC,0.00,WeatherDisplay:10.37,2013-07-28 03:30:00,
2013-07-27 22:35:00,58.0,50.1,29.72,North,355,0.6,3.5,75,0.00,OVC,SKC,0.00,WeatherDisplay:10.37,2013-07-28 03:35:00,
2013-07-27 22:40:00,58.0,50.1,29.71,North,355,0.3,2.3,75,0.00,OVC,SKC,0.00,WeatherDisplay:10.37,2013-07-28 03:40:00,
2013-07-27 22:45:00,57.8,49.9,29.71,North,355,0.3,3.5,75,0.00,OVC,SKC,0.00,WeatherDisplay:10.37,2013-07-28 03:45:00,
2013-07-27 22:50:00,57.8,49.9,29.71,North,355,0.9,2.3,75,0.00,OVC,SKC,0.00,WeatherDisplay:10.37,2013-07-28 03:50:00,
2013-07-27 22:55:00,57.8,50.3,29.71,North,355,0.2,1.2,76,0.00,OVC,SKC,0.00,WeatherDisplay:10.37,2013-07-28 03:55:00,
2013-07-27 23:00:00,57.8,50.3,29.71,North,355,0.1,1.2,76,0.00,OVC,SKC,0.00,WeatherDisplay:10.37,2013-07-28 04:00:00,
2013-07-27 23:01:00,57.8,50.3,29.71,North,355,0.5,2.0,76,0.00,OVC,SKC,0.00,WeatherDisplay:10.37,2013-07-28 04:01:00,
2013-07-27 23:02:00,57.8,50.3,29.71,North,355,0.5,2.3,76,0.00,OVC,SKC,0.00,WeatherDisplay:10.37,2013-07-28 04:02:00,
2013-07-27 23:04:00,57.8,50.3,29.71,North,355,0.4,2.0,76,0.00,OVC,SKC,0.00,WeatherDisplay:10.37,2013-07-28 04:04:00,
2013-07-27 23:07:00,57.8,50.3,29.71,North,355,0.2,1.2,76,0.00,OVC,SKC,0.00,WeatherDisplay:10.37,2013-07-28 04:07:00,
2013-07-27 23:08:00,57.8,50.3,29.71,North,355,0.7,2.3,76,0.00,OVC,SKC,0.00,WeatherDisplay:10.37,2013-07-28 04:08:00,
2013-07-27 23:13:00,57.8,50.3,29.71,North,355,0.3,2.3,76,0.00,OVC,SKC,0.00,WeatherDisplay:10.37,2013-07-28 04:13:00,
2013-07-27 23:18:00,57.8,49.9,29.71,North,355,1.2,2.3,75,0.00,OVC,SKC,0.00,WeatherDisplay:10.37,2013-07-28 04:18:00,
2013-07-27 23:23:00,58.0,50.1,29.71,North,355,0.8,3.5,75,0.00,OVC,SKC,0.00,WeatherDisplay:10.37,2013-07-28 04:23:00,
2013-07-27 23:28:00,58.1,49.9,29.71,North,355,0.7,3.5,74,0.00,OVC,SKC,0.00,WeatherDisplay:10.37,2013-07-28 04:28:00,
2013-07-27 23:33:00,58.3,49.3,29.71,North,355,1.2,3.5,72,0.00,OVC,SKC,0.00,WeatherDisplay:10.37,2013-07-28 04:33:00,
2013-07-27 23:38:00,58.4,49.4,29.71,North,355,1.5,4.0,72,0.00,OVC,SKC,0.00,WeatherDisplay:10.37,2013-07-28 04:38:00,
2013-07-27 23:43:00,58.5,49.5,29.71,North,355,0.8,3.5,72,0.00,OVC,SKC,0.00,WeatherDisplay:10.37,2013-07-28 04:43:00,
2013-07-27 23:48:00,58.5,49.5,29.71,North,355,0.6,3.5,72,0.00,OVC,SKC,0.00,WeatherDisplay:10.37,2013-07-28 04:48:00,
2013-07-27 23:53:00,58.5,49.5,29.71,North,355,0.2,3.5,72,0.00,OVC,SKC,0.00,WeatherDisplay:10.37,2013-07-28 04:53:00,
2013-07-27 23:58:00,58.5,49.9,29.71,North,355,1.1,3.0,73,0.00,OVC,SKC,0.00,WeatherDisplay:10.37,2013-07-28 04:58:00,